Location: Chin
(49.7667°N, 112.4500°W)
Time: 10:24:29
(UTC+00:00)

N. Korean satellite - Pass Details

Date: 11 December 2021
Orbit: 447 x 491 km, 97.3° (Epoch: 20 January)

Event Time Altitude Azimuth Distance (km) Brightness Sun altitude
Rises 13:59:19 0° 358° (N) 2,464 9.9 -11.9°
Reaches altitude 10° 14:01:51 10° 337° (NNW) 1,585 8.8 -11.5°
Enters shadow 14:02:31 13° 328° (NNW) 1,417 8.4 -11.4°
Exits shadow 14:07:04 - 246° (WSW) 1,807 9.1 -10.7°
Sets 14:08:51 0° 234° (SW) 2,451 9.8 -10.4°
